Location: Taipo
(41.0000°S, 175.9500°E)
Time: 11:41:14
(UTC+00:00)

Cosmos 1408 - Pass Details

Date: 18 April 2024
Orbit: 369 x 386 km, 82.6° (Epoch: 24 May)

Event Time Altitude Azimuth Distance (km) Brightness Sun altitude
Rises 17:47:40 0° 179° (S) 2,350 6.0 -12.5°
Reaches altitude 10° 17:49:49 10° 169° (S) 1,489 5.1 -12.1°
Maximum altitude 17:52:48 34° 102° (ESE) 709 4.1 -11.5°
Drops below altitude 10° 17:55:47 10° 34° (NE) 1,484 5.6 -11.0°
Sets 17:57:55 0° 25° (NNE) 2,341 6.5 -10.6°
